[[{"header":{"parameterUnit":"m.s-1","parameterCategory":1,"la1":30.2991,"la2":30.254,"lo1":-89.0895,"lo2":-89.0444,"dy":0.0017,"dx":0.0017,"nx":28,"ny":28,"refTime":"2025-12-21T03:00:00:Z","depth":0,"parameterNumber":2,"parameterNumberName":"U-component_of_WINDS"},"data":[0,0,0,0,0,0,0,0,0,0,0,0,0,0,0,0,0,0,0,0,0,0,0,0,0,0,0,0,0,0,0,0,0,0,0,0,0,0,0,0,0,0,0,0,0,0,0,0,0,0,0,0,0,0,0,0,0,0,-1.1323,-1.1323,0,-1.1318,-1.1318,-1.1318,-1.1305,-1.1305,-1.1305,-1.1304,-1.13,-1.13,-1.13,0,0,0,0,0,0,0,0,0,0,0,0,0,-1.1321,-1.1321,-1.1323,-1.1323,-1.1323,-1.1318,-1.1318,-1.1318,-1.1305,-1.1305,-1.1305,-1.1304,-1.13,-1.13,-1.13,0,0,0,0,0,0,0,0,0,0,0,0,0,-1.1319,-1.1321,-1.1323,-1.1316,-1.1315,-1.1318,-1.1318,-1.1318,-1.1305,-1.1305,-1.1305,-1.1304,-1.13,-1.13,-1.13,-1.131,0,0,-1.1301,-1.1301,0,0,0,0,0,0,0,0,-1.132,-1.132,-1.1317,-1.1316,-1.1316,-1.1312,-1.1316,-1.1316,-1.1306,-1.1309,-1.1304,-1.1304,-1.1304,-1.1304,-1.1304,-1.131,-1.131,-1.1301,-1.1301,-1.1301,-1.1301,0,0,0,0,0,0,0,-1.132,-1.132,-1.1321,-1.1317,-1.1316,-1.1313,-1.1312,-1.1316,-1.1309,-1.1309,-1.1308,-1.1307,-1.1304,-1.1304,-1.1304,-1.131,-1.1301,-1.1301,-1.1301,-1.1301,-1.1323,-1.1323,0,0,0,0,0,0,-1.1321,-1.132,-1.1321,-1.1321,-1.1317,-1.1313,-1.1313,-1.1314,-1.1309,-1.1308,-1.1308,-1.1307,-1.1304,-1.1304,-1.1304,-1.1314,-1.1301,-1.1301,-1.1302,-1.1322,-1.1323,-1.1323,0,0,0,0,0,0,-1.1321,-1.1321,-1.1321,-1.132,-1.132,-1.1314,-1.1315,-1.1314,-1.1314,-1.1308,-1.1307,-1.1309,-1.1304,-1.1304,-1.1309,-1.1314,-1.1302,-1.1302,-1.1322,-1.1323,-1.1323,-1.1336,0,0,0,0,0,0,-1.1321,-1.1321,-1.1325,-1.132,-1.132,-1.1326,-1.1315,-1.1314,-1.1314,-1.1313,-1.1309,-1.1308,-1.1303,-1.1308,-1.1309,-1.1314,-1.1302,-1.1321,-1.1322,-1.1323,-1.1335,-1.1337,-1.1339,0,0,0,0,0,-1.1321,-1.1329,-1.1325,-1.1325,-1.1324,-1.1327,-1.1326,-1.132,-1.1315,-1.1318,-1.1315,-1.1308,-1.1314,-1.1309,-1.1309,-1.1315,-1.1321,-1.1322,-1.1323,-1.1334,-1.1337,-1.1339,0,0,0,0,0,0,-1.1334,-1.1328,-1.1324,-1.133,-1.1329,-1.1324,-1.1328,-1.1323,-1.1323,-1.1322,-1.1315,-1.1314,-1.132,-1.1318,-1.1313,-1.1324,-1.1316,-1.1317,-1.1325,-1.1327,-1.1329,-1.1329,-1.1302,0,0,0,0,0,-1.1337,-1.1339,-1.1334,-1.1341,-1.134,-1.1335,-1.1335,-1.1331,-1.1329,-1.1328,-1.1325,-1.1324,-1.1325,-1.1326,-1.1327,-1.1335,-1.1334,-1.1339,-1.1341,-1.1343,-1.1343,-1.1347,-1.1349,-1.1327,-1.1327,-1.1327,0,0,-1.1345,-1.1342,-1.1344,-1.1343,-1.1342,-1.1344,-1.1334,-1.1337,-1.1339,-1.1329,-1.1333,-1.1331,-1.1329,-1.1335,-1.1338,-1.1334,-1.1349,-1.1344,-1.1345,-1.1345,-1.1348,-1.135,-1.1352,-1.1327,-1.1327,-1.1327,0,0,-1.1359,-1.1358,-1.1362,-1.1361,-1.1359,-1.1355,-1.1356,-1.1353,-1.1351,-1.1355,-1.1348,-1.135,-1.1352,-1.1351,-1.135,-1.1365,-1.1359,-1.1366,-1.1375,-1.1378,-1.138,-1.1382,-1.1386,-1.1388,-1.1367,-1.1367,-1.1367,0,-1.1369,-1.1372,-1.1366,-1.1369,-1.1369,-1.136,-1.1365,-1.1364,-1.1363,-1.1363,-1.1358,-1.1361,-1.1359,-1.1365,-1.1368,-1.1369,-1.137,-1.1365,-1.138,-1.1382,-1.1383,-1.1387,-1.1389,-1.1367,-1.1367,-1.1367,-1.1367,0,-1.1383,-1.1385,-1.139,-1.1388,-1.1389,-1.1393,-1.1387,-1.1388,-1.1384,-1.1381,-1.1385,-1.1383,-1.1383,-1.1384,-1.138,-1.1389,-1.1387,-1.1382,-1.1373,-1.1386,-1.139,-1.1391,-1.1368,-1.1368,-1.1368,-1.1368,0,0,-1.1405,-1.14,-1.1401,-1.14,-1.1397,-1.1399,-1.1403,-1.1403,-1.1404,-1.1403,-1.1406,-1.1408,-1.1404,-1.1403,-1.1399,-1.1402,-1.1413,-1.1397,-1.1396,-1.1399,-1.1422,-1.1425,-1.1427,-1.141,-1.141,-1.141,-1.1422,0,-1.1418,-1.1423,-1.1418,-1.1425,-1.1426,-1.1419,-1.1422,-1.1421,-1.1418,-1.1419,-1.1416,-1.1418,-1.1412,-1.1411,-1.1414,-1.1411,-1.1417,-1.141,-1.1411,-1.1412,-1.1411,-1.1429,-1.1433,-1.1444,-1.1424,-1.1424,-1.1424,0,-1.1433,-1.1433,-1.144,-1.1436,-1.1437,-1.144,-1.1439,-1.144,-1.1439,-1.1437,-1.1436,-1.1431,-1.1435,-1.1428,-1.1432,-1.1428,-1.1428,-1.1427,-1.1427,-1.1426,-1.1418,-1.1428,-1.1447,-1.1449,-1.1426,-1.1426,-1.1426,0,-1.1447,-1.1448,-1.1452,-1.1452,-1.1448,-1.145,-1.1449,-1.1447,-1.1447,-1.1447,-1.1447,-1.1448,-1.1448,-1.1448,-1.1443,-1.1439,-1.1448,-1.1441,-1.1446,-1.1446,-1.1447,-1.1447,-1.1466,-1.1449,-1.1449,-1.1449,-1.1449,0,-1.1461,-1.1465,-1.1458,-1.1461,-1.1465,-1.146,-1.1464,-1.1462,-1.1461,-1.1462,-1.1457,-1.1458,-1.1452,-1.1454,-1.145,-1.1454,-1.1454,-1.1452,-1.1451,-1.1452,-1.1452,-1.1452,-1.145,-1.145,-1.145,-1.1449,-1.1449,0,-1.1476,-1.1472,-1.1476,-1.1472,-1.1472,-1.1475,-1.1472,-1.1474,-1.1471,-1.1473,-1.1474,-1.1469,-1.147,-1.1466,-1.1467,-1.1464,-1.147,-1.1468,-1.147,-1.1469,-1.1474,-1.1473,-1.1492,-1.1494,-1.1477,-1.1477,-1.1478,0,-1.1485,-1.1488,-1.1485,-1.1485,-1.1484,-1.1486,-1.1486,-1.1481,-1.1481,-1.148,-1.1482,-1.1483,-1.1483,-1.1486,-1.1482,-1.1483,-1.148,-1.1487,-1.148,-1.1481,-1.1479,-1.1478,-1.1478,-1.1488,-1.1488,-1.1488,-1.1488,0,-1.15,-1.1498,-1.1499,-1.1499,-1.1499,-1.1499,-1.1498,-1.1499,-1.1494,-1.1495,-1.1496,-1.1496,-1.1497,-1.1498,-1.1497,-1.1496,-1.1491,-1.1491,-1.1492,-1.1492,-1.1493,-1.1492,-1.1473,-1.149,-1.149,-1.149,-1.149,-1.149,-1.1512,-1.1514,-1.1512,-1.1513,-1.1512,-1.1512,-1.1513,-1.1511,-1.1512,-1.1511,-1.1509,-1.151,-1.1509,-1.1508,-1.1507,-1.1508,-1.1505,-1.1507,-1.1507,-1.1507,-1.1508,-1.1494,-1.1508,-1.1508,-1.1508,-1.1508,-1.1508,0,-1.1526,-1.1525,-1.1526,-1.1525,-1.1526,-1.1522,-1.1521,-1.1521,-1.1523,-1.1522,-1.1522,-1.1524,-1.1524,-1.1521,-1.1522,-1.1523,-1.1521,-1.1523,-1.1523,-1.1522,-1.1511,-1.151,-1.1525,-1.1525,-1.1525,-1.1525,-1.1525,-1.1525,-1.1534,-1.1537,-1.1535,-1.1538,-1.1536,-1.1537,-1.1537,-1.1537,-1.1536,-1.1537,-1.1538,-1.1536,-1.1534,-1.1535,-1.1535,-1.1534,-1.1534,-1.1537,-1.1536,-1.1525,-1.1523,-1.1522,-1.152,-1.1538,-1.1538,-1.1547,-1.1547,-1.1547]},{"header":{"parameterUnit":"m.s-1","parameterCategory":1,"la1":30.2991,"la2":30.254,"lo1":-89.0895,"lo2":-89.0444,"dy":0.0017,"dx":0.0017,"nx":28,"ny":28,"refTime":"2025-12-21T03:00:00:Z","depth":0,"parameterNumber":3,"parameterNumberName":"V-component_of_WINDS"},"data":[0,0,0,0,0,0,0,0,0,0,0,0,0,0,0,0,0,0,0,0,0,0,0,0,0,0,0,0,0,0,0,0,0,0,0,0,0,0,0,0,0,0,0,0,0,0,0,0,0,0,0,0,0,0,0,0,0,0,1.9936,1.9936,0,1.9986,1.9986,1.9987,2.0004,2.0003,2.0003,2.0003,2.005,2.0052,2.0053,0,0,0,0,0,0,0,0,0,0,0,0,0,1.9852,1.9854,1.9936,1.9936,1.9937,1.9986,1.9986,1.9987,2.0004,2.0003,2.0003,2.0003,2.005,2.0051,2.0053,0,0,0,0,0,0,0,0,0,0,0,0,0,1.9894,1.9854,1.9936,1.9951,1.9953,1.9985,1.9986,1.9987,2.0004,2.0003,2.0003,2.0003,2.0049,2.0051,2.0053,2.0072,0,0,2.006,2.0061,0,0,0,0,0,0,0,0,1.9891,1.9897,1.9948,1.995,1.9952,1.9988,1.9974,2.0016,2.0004,1.9984,2.0003,2.0003,2.003,2.0033,2.0043,2.0075,2.0077,2.006,2.0061,2.0062,2.0063,0,0,0,0,0,0,0,1.9888,1.9895,1.9955,1.9949,1.9952,1.9955,1.9961,1.9982,2.0008,1.9986,1.9987,1.9993,2.0031,2.0041,2.0044,2.0077,2.006,2.0062,2.0063,2.0064,2.0128,2.0129,0,0,0,0,0,0,1.9883,1.9892,1.9954,1.9957,1.9921,1.9957,1.9963,1.9977,2.0008,2.0012,1.9993,1.9994,2.0037,2.0042,2.0046,2.0072,2.0062,2.0064,2.0066,2.0128,2.0128,2.0129,0,0,0,0,0,0,1.9882,1.9889,1.9952,1.9925,1.9933,1.9958,1.9974,1.9978,1.9989,2.0013,2.0018,2.0,2.0037,2.0043,2.0066,2.0073,2.0065,2.0067,2.0127,2.0128,2.0129,2.0122,0,0,0,0,0,0,1.9879,1.9888,1.9896,1.9925,1.9935,1.9972,1.9974,1.9979,1.9993,1.9994,2.002,2.0024,2.0038,2.0063,2.0069,2.0076,2.0069,2.0127,2.0128,2.0128,2.0122,2.0122,2.0123,0,0,0,0,0,1.9876,1.9891,1.9896,1.9904,1.9945,1.9972,1.9978,1.9994,1.9993,2.0001,2.0017,2.0024,2.0072,2.0065,2.0072,2.008,2.0127,2.0128,2.0128,2.0121,2.0122,2.0123,0,0,0,0,0,0,1.986,1.9895,1.9901,1.9926,1.9947,1.9975,1.9986,1.9994,2.0014,2.0013,2.0031,2.0037,2.0059,2.0072,2.0064,2.0101,2.0099,2.0102,2.0092,2.0093,2.0093,2.009,2.0071,0,0,0,0,0,1.986,1.988,1.9909,1.9928,1.9938,1.996,1.9972,1.9983,2.0004,2.0013,2.003,2.0049,2.0069,2.0082,2.0101,2.0123,2.013,2.0132,2.0133,2.0133,2.0135,2.0149,2.0151,2.0132,2.0132,2.0132,0,0,1.9859,1.988,1.9891,1.9925,1.9942,1.9962,1.9967,1.9987,2.0002,2.0015,2.0039,2.0053,2.0075,2.0099,2.011,2.011,2.0142,2.0134,2.0135,2.0136,2.015,2.0152,2.0153,2.0133,2.0132,2.0132,0,0,1.9867,1.9885,1.9904,1.9922,1.9948,1.9963,1.9967,1.9996,2.0006,2.003,2.0041,2.0058,2.0091,2.0107,2.012,2.0136,2.0143,2.0142,2.0145,2.0158,2.016,2.0161,2.0168,2.017,2.0144,2.0143,2.0143,0,1.9862,1.9894,1.9912,1.9933,1.9948,1.9962,1.9981,1.9997,2.0027,2.0037,2.0037,2.008,2.0096,2.0124,2.0128,2.0138,2.0143,2.0139,2.0158,2.016,2.0161,2.0168,2.017,2.0143,2.0143,2.0143,2.0143,0,1.9887,1.9908,1.992,1.9952,1.9968,1.9987,2.0008,2.0022,2.0032,2.0046,2.0072,2.0092,2.0116,2.0123,2.0132,2.0153,2.0152,2.0155,2.0154,2.0163,2.0169,2.0172,2.0143,2.0143,2.0143,2.0143,0,0,1.9885,1.9929,1.9933,1.9948,1.9979,1.9995,2.0016,2.0041,2.0053,2.0074,2.0091,2.012,2.0123,2.0137,2.0148,2.016,2.0173,2.0161,2.0162,2.0163,2.0198,2.0196,2.0198,2.0177,2.0178,2.0178,2.0196,0,1.9898,1.9937,1.9955,1.9985,2.0006,2.0021,2.0039,2.0059,2.0074,2.0093,2.0108,2.0129,2.0131,2.014,2.0152,2.0168,2.018,2.0167,2.0193,2.0194,2.0188,2.0202,2.02,2.0215,2.0198,2.0199,2.0199,0,1.9918,1.9942,1.9975,2.0005,2.0014,2.003,2.0055,2.0073,2.0097,2.0107,2.0124,2.0135,2.0156,2.0154,2.0184,2.0175,2.0186,2.0196,2.0197,2.02,2.0197,2.0206,2.0221,2.0223,2.0203,2.0203,2.0203,0,1.9915,1.9955,1.998,1.9992,2.0028,2.0039,2.0054,2.0077,2.0092,2.0114,2.0123,2.0147,2.0159,2.0177,2.0194,2.019,2.0222,2.0221,2.0231,2.023,2.0237,2.0236,2.0254,2.0243,2.0243,2.0243,2.0243,0,1.9928,1.9948,1.9979,1.9995,2.0017,2.0038,2.0059,2.0075,2.0096,2.0115,2.0128,2.0145,2.0166,2.0185,2.0198,2.0221,2.0227,2.0235,2.0238,2.0234,2.0233,2.0242,2.0242,2.0244,2.0244,2.0244,2.0244,0,1.9928,1.995,1.9979,2.0011,2.002,2.0035,2.0062,2.0077,2.0093,2.0116,2.0123,2.0147,2.0171,2.019,2.0219,2.0228,2.0253,2.0256,2.0245,2.0247,2.0256,2.0255,2.0281,2.0286,2.0271,2.0271,2.0271,0,1.9935,1.9951,1.9986,2.0,2.0016,2.0038,2.0054,2.0075,2.009,2.0119,2.0131,2.0156,2.0177,2.0214,2.0234,2.0257,2.0261,2.0269,2.0265,2.026,2.0262,2.0261,2.0263,2.0269,2.0269,2.0269,2.0269,0,1.9945,1.9956,1.9979,2.0007,2.0026,2.0047,2.007,2.008,2.0105,2.0122,2.0147,2.0164,2.0196,2.022,2.0246,2.026,2.0269,2.0271,2.0274,2.027,2.0264,2.0268,2.0247,2.027,2.027,2.027,2.027,2.027,1.995,1.9965,1.9993,2.0018,2.0038,2.0059,2.0075,2.0094,2.0116,2.0145,2.0156,2.0182,2.0206,2.0242,2.0256,2.0277,2.0277,2.0282,2.0283,2.0284,2.0285,2.026,2.0281,2.0281,2.0281,2.0281,2.0281,0,1.9961,1.998,2.0004,2.0036,2.0056,2.0064,2.009,2.0106,2.0129,2.0152,2.0173,2.0202,2.0227,2.0249,2.0274,2.0286,2.0291,2.0292,2.0292,2.0295,2.0282,2.0277,2.0288,2.0288,2.0288,2.0288,2.0288,2.0288,1.997,1.9997,2.0011,2.0048,2.0066,2.0094,2.0108,2.0127,2.0145,2.0178,2.0199,2.0215,2.0237,2.0264,2.0287,2.0293,2.0302,2.0302,2.0309,2.0297,2.0296,2.0295,2.029,2.0304,2.0304,2.032,2.0321,2.0321]}]]